User: anonymous   Login
Location: Unspecified
(0.0000°N, 0.0000°E)
Time: 22:39:50
(UTC+00:00)
Language:

KUIPER-00070 - Orbit

View from above orbital plane
View from above orbital plane
View from above satellite
View from above satellite

Ground track
Ground track

The orbit is defined by the following mean orbital elements,

1 64817U          26145.50222403 +.00000000 +00000-0 +46007-3 0 00005
2 64817  51.8999 325.8906 0000785 126.1052 233.9983 14.79977986    03
Epoch (UTC): 25 May 2026 12:03:12
Eccentricity: 0.0000785
inclination: 51.8999°
perigee height: 629 km
apogee height: 630 km
right ascension of ascending node: 325.8906°
argument of perigee: 126.1052°
revolutions per day: 14.79977986
mean anomaly at epoch: 233.9983°

The dashed part of the orbit path shows where the satellite is in the earth's shadow,  

DLR